Location: Bukovany
(49.8234°N, 14.6297°E)
Time: 06:01:45
(UTC+00:00)

SPOT 1/Viking Rocket - Pass Details

Date: 17 November 2025
Orbit: 773 x 789 km, 98.2° (Epoch: 10 December)

Event Time Altitude Azimuth Distance (km) Brightness Sun altitude
Rises 17:11:03 0° 166° (SSE) 3,256 6.7 -18.4°
Reaches altitude 10° 17:13:22 10° 167° (SSE) 2,335 5.9 -18.8°
Maximum altitude 17:18:32 83° 256° (WSW) 798 3.6 -19.6°
Drops below altitude 10° 17:23:46 10° 345° (NNW) 2,361 6.1 -20.4°
Sets 17:26:06 0° 346° (NNW) 3,296 6.9 -20.8°
